Location: STAR School
(35.3054°N, 111.2976°W)
Time: 16:57:06
(UTC-07:00)

LightSail 2 - Visible Passes

Search period start: 12 November 2019 00:00
Search period end: 22 November 2019 00:00
Orbit: 701 x 726 km, 24.0° (Epoch: 11 November)

Date Brightness Start Highest point End Pass type
(mag) Time Alt. Az. Time Alt. Az. Time Alt. Az.
12 Nov 7.9 03:53:25 12° SE 03:53:25 12° SE 03:54:08 10° SE visible
12 Nov 6.9 05:32:24 13° SW 05:35:46 23° S 05:39:51 10° SE visible
13 Nov 6.9 04:38:13 22° S 04:38:13 22° S 04:42:02 10° SE visible
13 Nov 7.1 06:19:07 10° SW 06:23:00 21° S 06:26:54 10° SE visible
14 Nov 8.1 03:44:00 11° SE 03:44:00 11° SE 03:44:08 10° SE visible
14 Nov 6.9 05:22:59 17° SW 05:25:17 23° S 05:29:17 10° SE visible
15 Nov 7.0 04:28:44 21° SSE 04:28:44 21° SSE 04:31:36 10° SE visible
15 Nov 7.2 06:09:01 10° SW 06:12:28 18° SSW 06:15:54 10° SSE visible
16 Nov 6.9 05:13:27 18° SSW 05:14:44 20° S 05:18:29 10° SE visible
17 Nov 7.4 04:19:10 17° SSE 04:19:10 17° SSE 04:20:55 10° SE visible
17 Nov 7.4 05:59:23 10° SW 06:01:52 13° SSW 06:04:20 10° SSE visible
18 Nov 7.1 05:03:52 16° SSW 05:04:08 16° SSW 05:07:16 10° SSE visible
19 Nov 7.8 04:09:35 11° SSE 04:09:35 11° SSE 04:09:56 10° SSE visible
20 Nov 7.5 04:54:17 11° S 04:54:17 11° S 04:55:12 10° S visible
